Погода в Вертячем

Россия / Волгоградская область     48°56′51″N   43°54′58″E
темп.,
°C
ветер,
м/с
пор.,
м/с
влажн.,
%
обл.,
%
осадки,
мм/ч
давл.,
гПа
погр.,
м
28 сентября, вт
вт2800:00+8ссз37905 0.0 1016167
03:00+7ссз349456 0.0 101760
06:00+7с349368 0.0 101874
09:00+11ссв356875 0.0 1019479
12:00+13ссв445496 0.0 10201182
15:00+13ссв555791 0.0 1021973
18:00+11ссв346664 0.0 102382
21:00+9св5767100 0.0 1025520
29 сентября, ср
ср2900:00+9св4663100 0.0 1026694
03:00+8св4761100 0.0 1027841
06:00+6с356790 0.0 1027121
09:00+9ссв564986 0.0 10281097
12:00+11ссв553912 0.0 10281783
15:00+12ссв553553 0.0 10272008
18:00+9всв584410 0.0 1028254
21:00+7св38525 0.0 1030158
30 сентября, чт
чт3000:00+6ссв35585 0.0 103092
03:00+5ссв35621 0.0 103077
06:00+4ссв35670 0.0 103186
09:00+9св56470 0.0 1032667
12:00+12св55345 0.0 10321700
15:00+12св45325 0.0 10311887
18:00+9в33425 0.0 103235
21:00+7всв22485 0.0 103320
1 октября, пт
пт100:00+6св22545 0.0 103412
03:00+5ссв22587 0.0 103413
06:00+4ссв22615 0.0 103416
09:00+9св33450 0.0 1035435
12:00+12св333520 0.0 10341789
15:00+13св333463 0.0 10341955
18:00+10св22435 0.0 103414
21:00+8ююв11505 0.0 103510
2 октября, сб
сб200:00+7з11516 0.0 103510
03:00+7сз11535 0.0 103510
06:00+6сз11555 0.0 103510
09:00+11ссз114431 0.0 1035319
12:00+14св22415 0.0 10351264
15:00+15всв22385 0.0 10341582
18:00+12вюв22475 0.0 103419
21:00+10юв22515 0.0 103425